period_start,C,m1,H,J0,J1,J2,J3,J4,J5,JA,JB,JC,JD,JJ,JK,JN,#
2018-10-07 00:01:50,0.00,0.00,0.00,23.62,28.20,30.01,-0.03,0.56,1025.71,2021.99,3635.25,3069.98,3533.99,0.00,0.00,0.00,0000 0000 0000 A000 020008
2018-10-07 00:06:51,0.00,0.00,0.00,23.62,28.20,30.01,-0.04,0.72,1025.55,2021.99,3635.25,3069.99,3533.99,0.00,0.00,0.00,0000 0000 0000 A000 020008
2018-10-07 00:11:52,0.00,0.00,0.00,23.62,28.19,30.08,-0.05,0.58,1025.55,2021.99,3635.42,3069.99,3534.00,0.00,0.00,0.00,0000 0000 0000 A000 020008
2018-10-07 00:16:53,0.00,0.00,0.00,23.60,28.17,30.06,-0.05,0.66,1025.44,2021.99,3635.74,3069.99,3534.01,0.00,0.00,0.00,0000 0000 0000 A000 020008
2018-10-07 00:21:55,0.00,0.00,0.00,23.60,28.17,29.97,-0.04,0.61,1025.41,2021.99,3635.88,3069.99,3534.03,0.00,0.00,0.00,0000 0000 0000 A000 020008
2018-10-07 00:26:56,0.00,0.00,0.00,23.60,28.17,30.02,-0.04,0.55,1025.41,2022.00,3635.95,3069.99,3534.14,0.00,0.00,0.00,0000 0000 0000 A000 020008
2018-10-07 00:31:57,0.00,0.00,0.00,23.60,28.17,30.02,-0.05,0.53,1025.40,2022.00,3635.98,3069.99,3534.34,0.00,0.00,0.00,0000 0000 0000 A000 020008
2018-10-07 00:36:58,0.00,0.00,0.00,23.59,28.15,30.03,-0.04,0.55,1025.37,2022.00,3635.98,3069.99,3534.28,0.00,0.00,0.00,0000 0000 0000 A000 020008
2018-10-07 00:41:59,0.00,0.00,0.00,23.59,28.15,30.01,-0.04,0.53,1025.28,2022.01,3635.97,3070.00,3534.36,0.00,0.00,0.00,0000 0000 0000 A000 020008
2018-10-07 00:47:00,0.00,0.00,0.00,23.59,28.15,30.03,-0.05,0.57,1024.99,2022.00,3635.99,3070.00,3534.73,0.00,0.00,0.00,0000 0000 0000 A000 020008
2018-10-07 00:52:01,0.00,0.00,0.00,23.59,28.13,30.06,-0.04,0.65,1024.92,2022.02,3635.99,3070.02,3534.91,0.00,0.00,0.00,0000 0000 0000 A000 020008
2018-10-07 00:57:03,0.00,0.00,0.00,23.59,28.12,30.09,-0.04,0.53,1024.92,2022.03,3635.99,3070.05,3534.98,0.00,0.00,0.00,0000 0000 0000 A000 020008
2018-10-07 01:02:04,0.00,0.00,0.00,23.58,28.12,30.04,-0.05,0.60,1024.92,2022.04,3635.99,3070.05,3534.97,0.00,0.00,0.00,0000 0000 0000 A000 020008
2018-10-07 01:07:05,0.00,0.00,0.00,23.59,28.12,30.04,-0.05,0.55,1024.92,2022.10,3636.00,3070.29,3534.98,0.00,0.00,0.00,0000 0000 0000 A000 020008
2018-10-07 01:12:06,0.00,0.00,0.00,23.58,28.10,29.99,-0.04,0.63,1024.73,2022.17,3636.01,3070.45,3534.99,0.00,0.00,0.00,0000 0000 0000 A000 020008
2018-10-07 01:17:08,0.00,0.00,0.00,23.58,28.10,30.07,-0.04,0.66,1024.46,2022.29,3636.03,3070.69,3534.99,0.00,0.00,0.00,0000 0000 0000 A000 020008
2018-10-07 01:22:09,0.00,0.00,0.00,23.58,28.10,29.98,-0.04,0.65,1024.43,2022.45,3636.04,3070.84,3534.99,0.00,0.00,0.00,0000 0000 0000 A000 020008
2018-10-07 01:27:10,0.00,0.00,0.00,23.57,28.10,29.98,-0.04,0.68,1024.42,2022.63,3636.08,3070.91,3534.99,0.00,0.00,0.00,0000 0000 0000 A000 020008
2018-10-07 01:32:11,0.00,0.00,0.00,23.57,28.08,29.98,-0.05,0.78,1024.41,2022.73,3636.09,3070.96,3534.99,0.00,0.00,0.00,0000 0000 0000 A000 020008
2018-10-07 01:37:12,0.00,0.00,0.00,23.57,28.07,29.97,-0.05,0.69,1024.38,2022.72,3636.18,3070.94,3535.00,0.00,0.00,0.00,0000 0000 0000 A000 020008
2018-10-07 01:42:13,0.00,0.00,0.00,23.58,28.07,30.02,-0.05,0.63,1024.33,2022.82,3636.40,3070.96,3535.02,0.00,0.00,0.00,0000 0000 0000 A000 020008
2018-10-07 01:47:15,0.00,0.00,0.00,23.57,28.07,30.04,-0.05,0.65,1024.35,2022.81,3636.40,3070.98,3535.01,0.00,0.00,0.00,0000 0000 0000 A000 020008
2018-10-07 01:52:16,0.00,0.00,0.00,23.57,28.06,30.05,-0.05,0.65,1024.36,2022.89,3636.50,3070.98,3535.04,0.00,0.00,0.00,0000 0000 0000 A000 020008
2018-10-07 01:57:17,0.00,0.00,0.00,23.56,28.05,29.97,-0.05,0.55,1024.29,2022.95,3636.85,3070.99,3535.17,0.00,0.00,0.00,0000 0000 0000 A000 020008
2018-10-07 02:02:18,0.00,0.00,0.00,23.55,28.05,30.01,-0.05,0.58,1024.16,2022.95,3636.93,3070.99,3535.26,0.00,0.00,0.00,0000 0000 0000 A000 020008
2018-10-07 02:07:19,0.00,0.00,0.00,23.53,28.05,30.01,-0.05,0.53,1023.97,2022.98,3636.95,3070.99,3535.49,0.00,0.00,0.00,0000 0000 0000 A000 020008
2018-10-07 02:12:20,0.00,0.00,0.00,23.54,28.04,29.93,-0.05,0.58,1023.95,2022.98,3636.98,3070.99,3535.68,0.00,0.00,0.00,0000 0000 0000 A000 020008
2018-10-07 02:17:22,0.00,0.00,0.00,23.54,28.02,29.88,-0.05,0.63,1023.94,2022.98,3636.98,3070.99,3535.60,0.00,0.00,0.00,0000 0000 0000 A000 020008
2018-10-07 02:22:23,0.00,0.00,0.00,23.55,28.02,29.94,-0.05,0.64,1023.94,2022.97,3636.98,3070.99,3535.89,0.00,0.00,0.00,0000 0000 0000 A000 020008
2018-10-07 02:27:24,0.00,0.00,0.00,23.55,28.02,29.93,-0.04,0.61,1023.95,2022.98,3636.98,3070.99,3535.91,0.00,0.00,0.00,0000 0000 0000 A000 020008
2018-10-07 02:32:25,0.00,0.00,0.00,23.55,28.02,29.94,-0.05,0.57,1023.95,2022.99,3636.99,3070.99,3535.97,0.00,0.00,0.00,0000 0000 0000 A000 020008
2018-10-07 02:37:27,0.00,0.00,0.00,23.55,28.01,29.99,-0.05,0.57,1023.95,2022.99,3636.99,3070.99,3535.97,0.00,0.00,0.00,0000 0000 0000 A000 020008
2018-10-07 02:42:28,0.00,0.00,0.00,23.55,28.00,29.96,-0.05,0.55,1023.94,2022.99,3636.99,3070.99,3535.98,0.00,0.00,0.00,0000 0000 0000 A000 020008
2018-10-07 02:47:29,0.00,0.00,0.00,23.55,28.00,30.00,-0.05,0.54,1023.94,2022.99,3636.99,3071.01,3535.98,0.00,0.00,0.00,0000 0000 0000 A000 020008
2018-10-07 02:52:30,0.00,0.00,0.00,23.55,28.00,29.95,-0.04,0.55,1023.94,2022.99,3636.99,3071.01,3535.98,0.00,0.00,0.00,0000 0000 0000 A000 020008
2018-10-07 02:57:32,0.00,0.00,0.00,23.55,28.00,29.98,-0.05,0.54,1023.94,2022.99,3636.99,3071.01,3535.99,0.00,0.00,0.00,0000 0000 0000 A000 020008
2018-10-07 03:02:33,0.00,0.00,0.00,23.57,28.00,29.97,-0.04,0.60,1023.94,2022.99,3636.99,3071.01,3535.99,0.00,0.00,0.00,0000 0000 0000 A000 020008
2018-10-07 03:07:34,0.00,0.00,0.00,23.57,28.00,29.99,-0.05,0.60,1023.94,2022.99,3636.99,3071.02,3535.99,0.00,0.00,0.00,0000 0000 0000 A000 020008
2018-10-07 03:12:35,0.00,0.00,0.00,23.57,28.00,30.00,-0.04,0.56,1023.94,2022.99,3637.00,3071.03,3535.99,0.00,0.00,0.00,0000 0000 0000 A000 020008
2018-10-07 03:17:36,0.00,0.00,0.00,23.57,28.00,29.97,-0.05,0.53,1023.94,2022.99,3637.00,3071.02,3535.99,0.00,0.00,0.00,0000 0000 0000 A000 020008
2018-10-07 03:22:37,0.00,0.00,0.00,23.57,28.00,30.02,-0.04,0.51,1023.88,2023.00,3637.00,3071.04,3535.99,0.00,0.00,0.00,0000 0000 0000 A000 020008
2018-10-07 03:27:38,0.00,0.00,0.00,23.57,27.99,29.98,-0.05,0.57,1023.77,2023.00,3637.00,3071.06,3535.99,0.00,0.00,0.00,0000 0000 0000 A000 020008
2018-10-07 03:32:39,0.00,0.00,0.00,23.57,27.99,29.98,-0.05,0.57,1023.77,2023.00,3637.00,3071.05,3535.99,0.00,0.00,0.00,0000 0000 0000 A000 020008
2018-10-07 03:37:40,0.00,0.00,0.00,23.58,27.99,30.03,-0.04,0.50,1023.77,2023.00,3637.00,3071.08,3535.99,0.00,0.00,0.00,0000 0000 0000 A000 020008
2018-10-07 03:42:41,0.00,0.00,0.00,23.58,27.99,29.98,-0.05,0.50,1023.59,2023.00,3637.01,3071.08,3535.99,0.00,0.00,0.00,0000 0000 0000 A000 020008
2018-10-07 03:47:43,0.00,0.00,0.00,23.59,27.99,29.99,-0.04,0.50,1023.47,2023.00,3637.01,3071.10,3535.99,0.00,0.00,0.00,0000 0000 0000 A000 020008
2018-10-07 03:52:44,0.00,0.00,0.00,23.60,27.99,30.04,-0.05,0.50,1023.48,2023.00,3637.00,3071.04,3535.99,0.00,0.00,0.00,0000 0000 0000 A000 020008
2018-10-07 03:57:45,0.00,0.00,0.00,23.60,27.99,30.01,-0.05,0.50,1023.47,2023.00,3637.00,3071.04,3535.99,0.00,0.00,0.00,0000 0000 0000 A000 020008
2018-10-07 04:02:46,0.00,0.00,0.00,23.60,28.00,29.99,-0.04,0.50,1023.46,2023.00,3637.00,3071.03,3535.99,0.00,0.00,0.00,0000 0000 0000 A000 020008
2018-10-07 04:07:48,0.00,0.00,0.00,23.62,28.00,30.03,-0.05,0.52,1023.46,2023.00,3637.00,3071.00,3535.99,0.00,0.00,0.00,0000 0000 0000 A000 020008
2018-10-07 04:12:49,0.00,0.00,0.00,23.64,28.00,30.03,-0.05,0.50,1023.45,2023.00,3637.01,3071.04,3535.99,0.00,0.00,0.00,0000 0000 0000 A000 020008
2018-10-07 04:17:50,0.00,0.00,0.00,23.65,28.00,30.01,-0.05,0.63,1023.45,2023.00,3637.00,3071.05,3535.99,0.00,0.00,0.00,0000 0000 0000 A000 020008
2018-10-07 04:22:51,0.00,0.00,0.00,23.67,28.00,30.06,-0.04,0.57,1023.45,2023.00,3637.00,3071.05,3535.99,0.00,0.00,0.00,0000 0000 0000 A000 020008
2018-10-07 04:27:53,0.00,0.00,0.00,23.68,28.00,30.02,-0.04,0.50,1023.45,2023.00,3637.00,3071.04,3535.99,0.00,0.00,0.00,0000 0000 0000 A000 020008
2018-10-07 04:32:54,0.00,0.00,0.00,23.70,28.01,30.04,-0.05,0.55,1023.45,2023.00,3637.00,3071.02,3535.99,0.00,0.00,0.00,0000 0000 0000 A000 020008
2018-10-07 04:37:55,0.00,0.00,0.00,23.70,28.02,30.05,-0.05,0.50,1023.45,2023.00,3637.00,3071.01,3535.99,0.00,0.00,0.00,0000 0000 0000 A000 020008
2018-10-07 04:42:56,0.00,0.00,0.00,23.70,28.02,30.05,-0.05,0.50,1023.45,2023.00,3637.00,3071.01,3535.99,0.00,0.00,0.00,0000 0000 0000 A000 020008
2018-10-07 04:47:58,0.00,0.00,0.00,23.70,28.02,30.09,-0.04,0.51,1023.45,2023.00,3637.00,3071.00,3535.99,0.00,0.00,0.00,0000 0000 0000 A000 020008
2018-10-07 04:52:59,0.00,0.00,0.00,23.72,28.02,30.12,-0.05,0.50,1023.45,2023.00,3637.00,3071.01,3535.99,0.00,0.00,0.00,0000 0000 0000 A000 020008
2018-10-07 04:58:00,0.00,0.00,0.00,23.72,28.03,30.12,-0.05,0.50,1023.46,2023.00,3637.00,3071.00,3535.99,0.00,0.00,0.00,0000 0000 0000 A000 020008
2018-10-07 05:03:02,0.00,0.00,0.00,23.74,28.05,30.15,-0.05,0.51,1023.48,2023.00,3637.00,3071.00,3535.98,0.00,0.00,0.00,0000 0000 0000 A000 020008
2018-10-07 05:08:03,0.00,0.00,0.00,23.75,28.05,30.16,-0.04,0.50,1023.48,2023.00,3637.00,3071.00,3535.99,0.00,0.00,0.00,0000 0000 0000 A000 020008
2018-10-07 05:13:05,0.00,0.00,0.00,23.76,28.05,30.15,-0.05,0.50,1023.74,2023.00,3637.00,3071.00,3535.96,0.00,0.00,0.00,0000 0000 0000 A000 020008
2018-10-07 05:18:06,0.00,0.00,0.00,23.77,28.07,30.17,-0.04,0.50,1023.61,2022.99,3636.99,3071.00,3535.88,0.00,0.00,0.00,0000 0000 0000 A000 020008
2018-10-07 05:23:07,0.00,0.00,0.00,23.77,28.07,30.21,-0.05,0.50,1023.47,2022.98,3636.98,3071.00,3535.73,0.00,0.00,0.00,0000 0000 0000 A000 020008
2018-10-07 05:28:08,0.00,0.00,0.00,23.80,28.07,30.19,-0.05,0.54,1023.46,2022.96,3636.92,3071.00,3535.29,0.00,0.00,0.00,0000 0000 0000 A000 020008
2018-10-07 05:33:09,0.00,0.00,0.00,23.80,28.09,30.18,-0.05,0.50,1023.48,2022.96,3636.68,3071.00,3535.10,0.00,0.00,0.00,0000 0000 0000 A000 020008
2018-10-07 05:38:10,0.00,0.00,0.00,23.82,28.10,30.20,-0.05,0.50,1023.49,2022.96,3636.49,3070.98,3535.04,0.00,0.00,0.00,0000 0000 0000 A000 020008
2018-10-07 05:43:12,0.00,0.00,0.00,23.84,28.10,30.23,-0.04,0.51,1023.45,2022.86,3636.12,3070.97,3535.00,0.00,0.00,0.00,0000 0000 0000 A000 020008
2018-10-07 05:48:13,0.00,0.00,0.00,23.85,28.12,30.22,-0.05,0.63,1023.45,2022.84,3636.08,3070.97,3535.00,0.00,0.00,0.00,0000 0000 0000 A000 020008
2018-10-07 05:53:14,0.00,0.00,0.00,23.87,28.12,30.25,-0.05,0.63,1023.46,2022.63,3636.07,3070.91,3535.00,0.00,0.00,0.00,0000 0000 0000 A000 020008
2018-10-07 05:58:16,0.00,0.00,0.00,23.87,28.13,30.26,-0.05,0.57,1023.46,2022.37,3636.01,3070.79,3535.00,0.00,0.00,0.00,0000 0000 0000 A000 020008
2018-10-07 06:03:17,0.00,0.00,0.00,23.88,28.15,30.26,-0.05,0.51,1023.49,2022.22,3636.00,3070.58,3534.99,0.00,0.00,0.00,0000 0000 0000 A000 020008
2018-10-07 06:08:18,0.00,0.00,0.00,23.89,28.15,30.29,-0.05,0.55,1023.46,2022.24,3636.00,3070.37,3534.99,0.00,0.00,0.00,0000 0000 0000 A000 020008
2018-10-07 06:13:19,0.00,0.00,0.00,23.90,28.16,30.28,-0.05,0.51,1023.49,2022.12,3636.00,3070.12,3534.96,0.00,0.00,0.00,0000 0000 0000 A000 020008
2018-10-07 06:18:20,0.00,0.00,0.00,23.90,28.17,30.29,-0.05,0.58,1023.48,2022.06,3636.00,3070.06,3534.95,0.00,0.00,0.00,0000 0000 0000 A000 020008
2018-10-07 06:23:21,0.00,0.00,0.00,23.90,28.17,30.32,-0.04,0.63,1023.46,2022.07,3636.00,3070.07,3534.93,0.00,0.00,0.00,0000 0000 0000 A000 020008
2018-10-07 06:28:22,0.00,0.00,0.00,23.89,28.17,30.31,-0.04,0.68,1023.46,2022.06,3636.00,3070.04,3534.87,0.00,0.00,0.00,0000 0000 0000 A000 020008
2018-10-07 06:33:23,0.00,0.00,0.00,23.90,28.20,30.33,-0.04,0.66,1023.45,2022.03,3635.99,3070.03,3534.72,0.00,0.00,0.00,0000 0000 0000 A000 020008
2018-10-07 06:38:25,0.00,0.00,0.00,23.90,28.20,30.31,-0.04,0.59,1023.47,2022.01,3635.97,3070.00,3534.32,0.00,0.00,0.00,0000 0000 0000 A000 020008
2018-10-07 06:43:26,0.00,0.00,0.00,23.92,28.21,30.32,-0.05,0.63,1023.46,2022.00,3635.94,3070.00,3534.05,0.00,0.00,0.00,0000 0000 0000 A000 020008
2018-10-07 06:48:27,0.00,0.00,0.00,23.92,28.22,30.35,-0.05,0.57,1023.47,2022.00,3635.79,3070.00,3534.01,0.00,0.00,0.00,0000 0000 0000 A000 020008
2018-10-07 06:53:29,0.00,0.00,0.00,23.94,28.22,30.31,-0.05,0.54,1023.48,2022.00,3635.55,3070.00,3534.01,0.00,0.00,0.00,0000 0000 0000 A000 020008
2018-10-07 06:58:30,0.00,0.00,0.00,23.95,28.24,30.33,-0.05,0.55,1023.49,2022.00,3635.44,3069.98,3534.00,0.00,0.00,0.00,0000 0000 0000 A000 020008
2018-10-07 07:03:31,0.00,0.00,0.00,23.98,28.25,30.34,-0.04,0.50,1023.56,2022.00,3635.10,3069.98,3534.00,0.00,0.00,0.00,0000 0000 0000 A000 020008
2018-10-07 07:08:32,0.00,0.00,0.00,24.00,28.26,30.36,-0.05,0.50,1023.83,2022.00,3635.06,3069.96,3534.00,0.00,0.00,0.00,0000 0000 0000 A000 020008
2018-10-07 07:13:33,0.00,0.00,0.00,24.00,28.27,30.36,-0.05,0.50,1023.94,2022.00,3635.05,3069.98,3534.00,0.00,0.00,0.00,0000 0000 0000 A000 020008
2018-10-07 07:18:34,0.00,0.00,0.00,24.01,28.27,30.40,-0.05,0.51,1023.94,2022.00,3635.03,3069.96,3534.00,0.00,0.00,0.00,0000 0000 0000 A000 020008
2018-10-07 07:23:36,0.00,0.00,0.00,24.02,28.29,30.39,-0.04,0.51,1023.94,2022.00,3635.02,3069.93,3533.99,0.00,0.00,0.00,0000 0000 0000 A000 020008
2018-10-07 07:28:37,0.00,0.00,0.00,24.02,28.30,30.41,-0.05,0.53,1023.94,2021.98,3635.00,3069.76,3533.95,0.00,0.00,0.00,0000 0000 0000 A000 020008
2018-10-07 07:33:38,0.00,0.00,0.00,24.02,28.30,30.44,-0.05,0.55,1023.94,2021.97,3635.00,3069.49,3533.93,0.00,0.00,0.00,0000 0000 0000 A000 020008
2018-10-07 07:38:39,0.00,0.00,0.00,24.02,28.31,30.51,-0.05,0.53,1023.94,2021.97,3635.00,3069.38,3533.93,0.00,0.00,0.00,0000 0000 0000 A000 020008
2018-10-07 07:43:41,0.00,0.00,0.00,24.02,28.32,30.46,-0.05,0.51,1023.94,2021.97,3635.00,3069.07,3533.50,0.00,0.00,0.00,0000 0000 0000 A000 020008
2018-10-07 07:48:42,0.00,0.00,0.00,24.02,28.32,30.46,-0.04,0.51,1023.94,2021.96,3634.99,3069.03,3533.19,0.00,0.00,0.00,0000 0000 0000 A000 020008
2018-10-07 07:53:43,0.00,0.00,0.00,24.02,28.33,30.43,-0.05,0.50,1023.97,2021.92,3634.98,3069.02,3533.19,0.00,0.00,0.00,0000 0000 0000 A000 020008
2018-10-07 07:58:44,0.00,0.00,0.00,24.02,28.35,30.47,-0.04,0.50,1024.19,2021.91,3634.98,3069.01,3533.04,0.00,0.00,0.00,0000 0000 0000 A000 020008
2018-10-07 08:03:46,0.00,0.00,0.00,24.02,28.35,30.44,-0.05,0.50,1024.43,2021.90,3634.97,3069.02,3533.04,0.00,0.00,0.00,0000 0000 0000 A000 020008
2018-10-07 08:08:47,0.00,0.00,0.00,24.02,28.35,30.46,-0.04,0.52,1024.43,2021.73,3634.95,3069.00,3533.01,0.00,0.00,0.00,0000 0000 0000 A000 020008
2018-10-07 08:13:48,0.00,0.00,0.00,24.01,28.37,30.45,-0.05,0.53,1024.43,2021.56,3634.81,3069.00,3533.00,0.00,0.00,0.00,0000 0000 0000 A000 020008
2018-10-07 08:18:49,0.00,0.00,0.00,24.01,28.37,30.46,-0.05,0.50,1024.44,2021.25,3634.29,3069.00,3533.00,0.00,0.00,0.00,0000 0000 0000 A000 020008
2018-10-07 08:23:50,0.00,0.00,0.00,24.02,28.37,30.49,-0.05,0.54,1024.44,2021.18,3634.11,3068.99,3533.00,0.00,0.00,0.00,0000 0000 0000 A000 020008
2018-10-07 08:28:52,0.00,0.00,0.00,24.04,28.38,30.50,-0.05,0.52,1024.44,2021.09,3634.10,3068.98,3532.99,0.00,0.00,0.00,0000 0000 0000 A000 020008
2018-10-07 08:33:53,0.00,0.00,0.00,24.05,28.40,30.51,-0.05,0.53,1024.44,2021.10,3634.08,3068.98,3532.99,0.00,0.00,0.00,0000 0000 0000 A000 020008
2018-10-07 08:38:54,0.00,0.00,0.00,24.05,28.40,30.52,-0.05,0.57,1024.44,2021.08,3634.12,3068.99,3532.99,0.00,0.00,0.00,0000 0000 0000 A000 020008
2018-10-07 08:43:55,0.00,0.00,0.00,24.04,28.40,30.50,-0.05,0.62,1024.43,2021.02,3634.04,3068.99,3532.98,0.00,0.00,0.00,0000 0000 0000 A000 020008
2018-10-07 08:48:56,0.00,0.00,0.00,24.04,28.41,30.48,-0.05,0.59,1024.43,2021.05,3634.01,3068.98,3532.96,0.00,0.00,0.00,0000 0000 0000 A000 020008
2018-10-07 08:53:58,0.00,0.00,0.00,24.04,28.42,30.47,-0.05,0.62,1024.45,2021.04,3634.02,3068.95,3532.96,0.00,0.00,0.00,0000 0000 0000 A000 020008
2018-10-07 08:58:59,0.00,0.00,0.00,24.05,28.42,30.45,-0.05,0.60,1024.49,2021.03,3634.02,3068.97,3532.97,0.00,0.00,0.00,0000 0000 0000 A000 020008
2018-10-07 09:04:00,0.00,0.00,0.00,24.05,28.42,30.47,-0.05,0.60,1024.46,2021.01,3634.03,3068.92,3532.95,0.00,0.00,0.00,0000 0000 0000 A000 020008
2018-10-07 09:09:01,0.00,0.00,0.00,24.05,28.43,30.46,-0.05,0.62,1024.46,2021.02,3634.03,3068.92,3532.94,0.00,0.00,0.00,0000 0000 0000 A000 020008
2018-10-07 09:14:02,0.00,0.00,0.00,24.06,28.45,30.52,-0.05,0.57,1024.51,2021.01,3634.01,3068.86,3532.86,0.00,0.00,0.00,0000 0000 0000 A000 020008
2018-10-07 09:19:04,0.00,0.00,0.00,24.07,28.45,30.49,-0.05,0.62,1024.61,2021.00,3634.00,3068.61,3532.52,0.00,0.00,0.00,0000 0000 0000 A000 020008
2018-10-07 09:24:05,0.00,0.00,0.00,24.07,28.45,30.47,-0.05,0.60,1024.86,2021.01,3634.00,3068.62,3532.53,0.00,0.00,0.00,0000 0000 0000 A000 020008
2018-10-07 09:29:06,0.00,0.00,0.00,24.07,28.46,30.52,-0.05,0.55,1024.92,2021.00,3634.00,3068.24,3532.18,0.00,0.00,0.00,0000 0000 0000 A000 020008
2018-10-07 09:34:07,0.00,0.00,0.00,24.08,28.47,30.49,-0.05,0.54,1024.94,2021.00,3633.99,3068.08,3532.05,0.00,0.00,0.00,0000 0000 0000 A000 020008
2018-10-07 09:39:09,0.00,0.00,0.00,24.10,28.47,30.52,-0.04,0.63,1024.94,2021.00,3633.98,3068.04,3532.02,0.00,0.00,0.00,0000 0000 0000 A000 020008
2018-10-07 09:44:10,0.00,0.00,0.00,24.10,28.47,30.55,-0.05,0.63,1024.97,2021.00,3633.97,3068.02,3532.00,0.00,0.00,0.00,0000 0000 0000 A000 020008
2018-10-07 09:49:11,0.00,0.00,0.00,24.10,28.49,30.54,-0.05,0.64,1025.00,2021.00,3633.97,3068.01,3532.01,0.00,0.00,0.00,0000 0000 0000 A000 020008
2018-10-07 09:54:12,0.00,0.00,0.00,24.10,28.50,30.55,-0.05,0.68,1025.06,2021.00,3633.97,3068.01,3532.01,0.00,0.00,0.00,0000 0000 0000 A000 020008
2018-10-07 09:59:13,0.00,0.00,0.00,24.10,28.50,30.56,-0.04,0.62,1025.32,2020.99,3633.95,3068.00,3532.00,0.00,0.00,0.00,0000 0000 0000 A000 020008
2018-10-07 10:04:15,0.00,0.00,0.00,24.10,28.50,30.47,-0.04,0.66,1025.40,2020.99,3633.96,3068.00,3532.00,0.00,0.00,0.00,0000 0000 0000 A000 020008
2018-10-07 10:09:16,0.00,0.00,0.00,24.10,28.50,30.51,-0.04,0.53,1025.40,2020.99,3633.94,3068.00,3532.00,0.00,0.00,0.00,0000 0000 0000 A000 020008
2018-10-07 10:14:17,0.00,0.00,0.00,24.10,28.52,30.55,-0.04,0.50,1025.42,2020.99,3633.92,3068.00,3532.00,0.00,0.00,0.00,0000 0000 0000 A000 020008
2018-10-07 10:19:18,0.00,0.00,0.00,24.10,28.52,30.53,-0.05,0.55,1025.42,2020.99,3633.97,3068.00,3532.00,0.00,0.00,0.00,0000 0000 0000 A000 020008
2018-10-07 10:24:19,0.00,0.00,0.00,24.11,28.52,30.51,-0.05,0.57,1025.43,2020.99,3633.91,3068.00,3532.00,0.00,0.00,0.00,0000 0000 0000 A000 020008
2018-10-07 10:29:20,0.00,0.00,0.00,24.12,28.52,30.52,-0.04,0.55,1025.52,2020.98,3633.89,3068.00,3532.00,0.00,0.00,0.00,0000 0000 0000 A000 020008
2018-10-07 10:34:22,0.00,0.00,0.00,24.12,28.53,30.51,-0.05,0.55,1025.62,2020.98,3633.84,3068.00,3532.00,0.00,0.00,0.00,0000 0000 0000 A000 020008
2018-10-07 10:39:23,0.00,0.00,0.00,24.12,28.54,30.51,-0.05,0.47,1025.81,2020.99,3633.55,3068.00,3531.99,0.00,0.00,0.00,0000 0000 0000 A000 020008
2018-10-07 10:44:24,0.00,0.00,0.00,24.12,28.55,30.53,-0.05,0.51,1025.88,2020.97,3633.44,3068.00,3531.99,0.00,0.00,0.00,0000 0000 0000 A000 020008
2018-10-07 10:49:25,0.00,0.00,0.00,24.12,28.55,30.53,-0.05,0.48,1025.88,2020.98,3633.19,3068.00,3531.97,0.00,0.00,0.00,0000 0000 0000 A000 020008
2018-10-07 10:54:26,0.00,0.00,0.00,24.12,28.55,30.54,-0.05,0.51,1025.89,2020.96,3633.04,3067.99,3531.92,0.00,0.00,0.00,0000 0000 0000 A000 020008
2018-10-07 10:59:28,0.00,0.00,0.00,24.14,28.55,30.54,-0.05,0.50,1025.90,2020.96,3633.01,3067.98,3531.87,0.00,0.00,0.00,0000 0000 0000 A000 020008
2018-10-07 11:04:29,0.00,0.00,0.00,24.15,28.55,30.55,-0.05,0.50,1025.90,2020.94,3633.01,3067.98,3531.73,0.00,0.00,0.00,0000 0000 0000 A000 020008
2018-10-07 11:09:30,0.00,0.00,0.00,24.15,28.57,30.56,-0.05,0.53,1025.92,2020.89,3633.02,3067.98,3531.85,0.00,0.00,0.00,0000 0000 0000 A000 020008
2018-10-07 11:14:32,0.00,0.00,0.00,24.15,28.57,30.55,-0.05,0.59,1025.95,2020.94,3633.03,3067.99,3531.84,0.00,0.00,0.00,0000 0000 0000 A000 020008
2018-10-07 11:19:33,0.00,0.00,0.00,24.15,28.57,30.60,-0.04,0.54,1025.98,2020.89,3633.00,3067.95,3531.39,0.00,0.00,0.00,0000 0000 0000 A000 020008
2018-10-07 11:24:34,0.00,0.00,0.00,24.15,28.57,30.56,-0.05,0.60,1026.11,2020.81,3633.00,3067.89,3531.18,0.00,0.00,0.00,0000 0000 0000 A000 020008
2018-10-07 11:29:35,0.00,0.00,0.00,24.16,28.57,30.53,-0.05,0.60,1026.36,2020.86,3633.00,3067.95,3531.27,0.00,0.00,0.00,0000 0000 0000 A000 020008
2018-10-07 11:34:36,0.00,0.00,0.00,24.16,28.58,30.57,-0.05,0.55,1026.33,2020.81,3633.00,3067.90,3531.24,0.00,0.00,0.00,0000 0000 0000 A000 020008
2018-10-07 11:39:38,0.00,0.00,0.00,24.16,28.59,30.54,-0.05,0.52,1026.35,2020.65,3633.00,3067.71,3531.08,0.00,0.00,0.00,0000 0000 0000 A000 020008
2018-10-07 11:44:39,0.00,0.00,0.00,24.17,28.60,30.56,-0.05,0.56,1026.30,2020.68,3633.00,3067.76,3531.10,0.00,0.00,0.00,0000 0000 0000 A000 020008
2018-10-07 11:49:40,0.00,0.00,0.00,24.17,28.60,30.58,-0.05,0.54,1026.38,2020.54,3633.00,3067.57,3531.03,0.00,0.00,0.00,0000 0000 0000 A000 020008
2018-10-07 11:54:41,0.00,0.00,0.00,24.17,28.60,30.62,-0.05,0.51,1026.38,2020.60,3633.00,3067.62,3531.04,0.00,0.00,0.00,0000 0000 0000 A000 020008
2018-10-07 11:59:42,0.00,0.00,0.00,24.17,28.60,30.59,-0.05,0.52,1026.38,2020.57,3633.00,3067.50,3531.02,0.00,0.00,0.00,0000 0000 0000 A000 020008
2018-10-07 12:04:43,0.00,0.00,0.00,24.17,28.60,30.60,-0.05,0.53,1026.38,2020.44,3633.00,3067.30,3531.02,0.00,0.00,0.00,0000 0000 0000 A000 020008
2018-10-07 12:09:44,0.00,0.00,0.00,24.17,28.61,30.61,-0.05,0.52,1026.38,2020.33,3633.00,3067.31,3531.01,0.00,0.00,0.00,0000 0000 0000 A000 020008
2018-10-07 12:14:45,0.00,0.00,0.00,24.17,28.62,30.66,-0.05,0.50,1026.38,2020.31,3632.99,3067.11,3531.00,0.00,0.00,0.00,0000 0000 0000 A000 020008
2018-10-07 12:19:47,0.00,0.00,0.00,24.18,28.62,30.60,-0.05,0.51,1026.39,2020.19,3632.98,3067.07,3531.00,0.00,0.00,0.00,0000 0000 0000 A000 020008
2018-10-07 12:24:48,0.00,0.00,0.00,24.19,28.62,30.58,-0.05,0.49,1026.41,2020.12,3632.98,3067.03,3531.00,0.00,0.00,0.00,0000 0000 0000 A000 020008
2018-10-07 12:29:49,0.00,0.00,0.00,24.20,28.62,30.63,-0.05,0.49,1026.40,2020.21,3632.98,3067.09,3531.00,0.00,0.00,0.00,0000 0000 0000 A000 020008
2018-10-07 12:34:50,0.00,0.00,0.00,24.20,28.62,30.61,-0.05,0.47,1026.40,2020.10,3632.98,3067.05,3531.00,0.00,0.00,0.00,0000 0000 0000 A000 020008
2018-10-07 12:39:52,0.00,0.00,0.00,24.20,28.62,30.61,-0.05,0.49,1026.41,2020.05,3632.91,3067.01,3531.00,0.00,0.00,0.00,0000 0000 0000 A000 020008
2018-10-07 12:44:53,0.00,0.00,0.00,24.21,28.63,30.64,-0.05,0.51,1026.45,2020.02,3632.71,3067.00,3530.98,0.00,0.00,0.00,0000 0000 0000 A000 020008
2018-10-07 12:49:54,0.00,0.00,0.00,24.22,28.64,30.64,-0.05,0.47,1026.49,2020.01,3632.67,3067.00,3530.99,0.00,0.00,0.00,0000 0000 0000 A000 020008
2018-10-07 12:54:55,0.00,0.00,0.00,24.22,28.65,30.66,-0.05,0.51,1026.61,2020.01,3632.73,3067.00,3530.98,0.00,0.00,0.00,0000 0000 0000 A000 020008
2018-10-07 12:59:56,0.00,0.00,0.00,24.22,28.65,30.66,-0.05,0.47,1026.66,2020.03,3632.85,3067.00,3530.98,0.00,0.00,0.00,0000 0000 0000 A000 020008
2018-10-07 13:04:57,0.00,0.00,0.00,24.22,28.65,30.69,-0.05,0.47,1026.60,2020.04,3632.65,3067.00,3530.97,0.00,0.00,0.00,0000 0000 0000 A000 020008
2018-10-07 13:09:58,0.00,0.00,0.00,24.23,28.65,30.62,-0.05,0.47,1026.70,2020.03,3632.71,3067.00,3530.98,0.00,0.00,0.00,0000 0000 0000 A000 020008
2018-10-07 13:15:00,0.00,0.00,0.00,24.23,28.65,30.63,-0.05,0.47,1026.66,2020.01,3632.81,3067.00,3530.99,0.00,0.00,0.00,0000 0000 0000 A000 020008
2018-10-07 13:20:00,0.00,0.00,0.00,24.24,28.65,30.64,-0.05,0.48,1026.67,2020.04,3632.79,3067.00,3530.98,0.00,0.00,0.00,0000 0000 0000 A000 020008
2018-10-07 13:25:01,0.00,0.00,0.00,24.25,28.65,30.68,-0.05,0.48,1026.84,2020.00,3632.29,3067.00,3530.96,0.00,0.00,0.00,0000 0000 0000 A000 020008